Flag for U.S.A. Weather past 2 weeks in Manhattan, Kansas, U.S.A.

Now
80 °F

Clear.


Feels Like: 82 °F
Forecast: 78 / 98 °F
Wind: 14 mph from Southwest

Location: Manhattan Municipal Airport

Current Time: Aug 21, 2014 at 5:14:08 AM

Latest Report: Aug 21, 2014 at 4:52 AM


Visibility: 10 mi

Pressure: 29.78 "Hg

Humidity: 64%

Dew point: 67 °F

Location of ManhattanLocation

Historic Weather in Manhattan — Graph

°F

Manhattan temperature yesterday

Maximum temperature yesterday: 97 °F (at 2:52 PM)
Minimum temperature yesterday: 74 °F (at 6:52 AM)
Average temperature yesterday: 86 °F

Past Weeks' High & Low Weather Summary

 TemperatureHumidityPressure
High99 °F (Aug 6, 1:52 PM)97% (Aug 7, 2:59 AM)30.16 "Hg (Aug 7, 2:59 AM)
Low54 °F (Aug 13, 6:52 AM)31% (Aug 6, 3:52 PM)29.67 "Hg (Aug 19, 3:52 AM)
Average77 °F70%29.92 "Hg
* Reported Aug 6 3:52 AM — Aug 21 3:52 AM, Manhattan, Weather by CustomWeather, © 2014

Note: Actual official high and low records may vary slightly from our data, if they occured in-between our weather recording intervals... More about our weather records

Advertising

Manhattan weather history for previous 24 hours

 ConditionsComfort  
Time TempWeatherWind HumidityBarometerVisibility
3:52 AM
Aug 21
81 °FClear.14 mph62%29.78 "Hg10 mi
2:52 AM82 °FPassing clouds.16 mph60%29.78 "Hg10 mi
1:52 AM83 °FClear.17 mph57%29.78 "Hg10 mi
12:52 AM84 °FClear.17 mph55%29.79 "Hg10 mi
11:52 PM
Aug 20
86 °FClear.18 mph51%29.78 "Hg10 mi
10:52 PM86 °FClear.13 mph51%29.77 "Hg10 mi
9:52 PM87 °FClear.13 mph53%29.76 "Hg10 mi
8:52 PM88 °FSunny.8 mph54%29.74 "Hg10 mi
7:52 PM90 °FSunny.10 mph50%29.73 "Hg10 mi
6:52 PM93 °FSunny.13 mph46%29.73 "Hg10 mi
5:52 PM95 °FSunny.16 mph41%29.73 "Hg10 mi
4:52 PM97 °FPassing clouds.17 mph39%29.73 "Hg10 mi
3:52 PM97 °FSunny.13 mph39%29.73 "Hg10 mi
2:52 PM97 °FScattered clouds.14 mph40%29.75 "Hg10 mi
1:52 PM96 °FSunny.15 mph40%29.77 "Hg10 mi
12:52 PM94 °FSunny.16 mph43%29.78 "Hg10 mi
11:52 AM91 °FSunny.13 mph49%29.80 "Hg10 mi
10:52 AM88 °FSunny.13 mph54%29.80 "Hg10 mi
9:52 AM85 °FSunny.12 mph59%29.80 "Hg10 mi
8:52 AM81 °FSunny.10 mph67%29.81 "Hg10 mi
7:52 AM76 °FSunny.7 mph80%29.80 "Hg10 mi
6:52 AM74 °FClear.6 mph82%29.78 "Hg10 mi
5:52 AM76 °FClear.10 mph77%29.77 "Hg10 mi
Weather by CustomWeather, © 2014

See weather overviewHow to use our weather pages